Location: ????????
(48.4751°N, 37.6926°E)
Time: 19:14:24
(UTC+00:00)

Okean 1-7 Rocket - Pass Details

Date: 20 January 2021
Orbit: 615 x 650 km, 82.5° (Epoch: 02 March)

Event Time Altitude Azimuth Distance (km) Brightness Sun altitude
Rises 15:57:04 0° 188° (S) 2,941 7.3 -17.5°
Reaches altitude 10° 15:59:18 10° 188° (S) 2,040 6.4 -17.9°
Maximum altitude 16:03:50 90° 251° (WSW) 656 3.6 -18.6°
Drops below altitude 10° 16:08:27 10° 10° (N) 2,067 6.1 -19.4°
Enters shadow 16:09:36 - 10° (N) 2,530 6.5 -19.6°
